Flag for Germany Weather past 2 weeks in Prenzlau, Brandenburg, Germany

Now
41 °F

Fog.


Feels Like: 41 °F
Forecast: 32 / 45 °F
Wind: 2 mph from Southeast

Location: Szczecin Airport

Current Time: Feb 27, 2015 at 6:01:14 PM

Latest Report: Feb 27, 2015 at 5:30 PM


Visibility: 3 mi

Pressure: 29.92 "Hg

Humidity: 81%

Dew point: 36 °F

Location of PrenzlauLocation

Historic Weather in Prenzlau — Graph

°F

Prenzlau temperature yesterday

Maximum temperature yesterday: 46 °F (at 12:30 PM)
Minimum temperature yesterday: 23 °F (at 7:30 AM)
Average temperature yesterday: 36 °F

Past Weeks' High & Low Weather Summary

 TemperatureHumidityPressure
High50 °F (Feb 21, 1:00 PM)100% (Feb 12, 9:00 PM)30.66 "Hg (Feb 12, 9:00 PM)
Low23 °F (Feb 26, 7:30 AM)4% (Feb 16, 1:00 AM)29.33 "Hg (Feb 21, 2:00 PM)
Average35 °F79%30.03 "Hg
* Reported Feb 12 5:00 PM — Feb 27 5:00 PM, Prenzlau, Weather by CustomWeather, © 2015

Note: Actual official high and low records may vary slightly from our data, if they occured in-between our weather recording intervals... More about our weather records

Advertising

Prenzlau weather history for previous 24 hours

 ConditionsComfort  
Time TempWeatherWind HumidityBarometerVisibility
5:00 PM
Fri, Feb 27
43 °FClear.5 mph76%29.92 "Hg5 mi
4:30 PM45 °FClear.7 mph71%29.92 "Hg5 mi
4:00 PM45 °FClear.9 mph76%29.92 "Hg5 mi
3:30 PM45 °FClear.10 mph76%29.92 "Hg5 mi
3:00 PM45 °FPartly sunny.10 mph76%29.92 "Hg5 mi
2:30 PM43 °FPartly sunny.10 mph76%29.92 "Hg4 mi
2:00 PM43 °FPartly sunny.9 mph81%29.92 "Hg4 mi
1:30 PM45 °FPartly sunny.9 mph76%29.92 "Hg4 mi
1:00 PM45 °FPartly sunny.9 mph76%29.92 "Hg4 mi
12:30 PM45 °FPartly sunny.9 mph76%29.92 "Hg4 mi
12:00 PM45 °FScattered clouds.12 mph76%29.92 "Hg4 mi
11:30 AM45 °FClear.13 mph76%29.92 "Hg4 mi
11:00 AM43 °FPassing clouds.9 mph81%29.92 "Hg4 mi
10:30 AM41 °FFog.8 mph87%29.92 "Hg3 mi
10:00 AM41 °FFog.10 mph87%29.92 "Hg3 mi
9:30 AM39 °FFog.8 mph87%29.92 "Hg3 mi
9:00 AM37 °FFog.9 mph93%29.92 "Hg2 mi
8:30 AM37 °FFog.12 mph93%29.92 "Hg2 mi
8:00 AM36 °FFog.10 mph93%29.92 "Hg1 mi
7:30 AM34 °FFog.9 mph93%29.95 "Hg1 mi
7:00 AM36 °FFog.9 mph93%29.92 "Hg2 mi
6:30 AM36 °FFog.10 mph93%29.95 "Hg2 mi
6:00 AM36 °FFog.10 mph87%29.95 "Hg2 mi
5:30 AM36 °FFog.9 mph87%29.95 "Hg2 mi
4:30 AM34 °FFog.9 mph93%29.95 "Hg2 mi
4:00 AM34 °FClear.8 mph93%29.95 "Hg4 mi
3:30 AM34 °FClear.9 mph93%29.95 "Hg4 mi
3:00 AM34 °FClear.9 mph93%29.98 "Hg4 mi
2:30 AM34 °FClear.9 mph87%29.98 "Hg4 mi
2:00 AM34 °FClear.9 mph87%29.98 "Hg4 mi
1:30 AM36 °FClear.9 mph81%30.01 "Hg5 mi
1:00 AM36 °FClear.8 mph81%30.01 "Hg10 mi
12:30 AM36 °FClear.9 mph81%30.01 "Hg10 mi
12:00 AM36 °FClear.9 mph81%30.01 "Hg10 mi
11:30 PM
Thu, Feb 26
36 °FClear.10 mph81%30.04 "Hg10 mi
11:00 PM36 °FClear.9 mph81%30.04 "Hg10 mi
10:00 PM34 °FClear.8 mph81%30.04 "Hg10 mi
9:30 PM34 °FClear.8 mph75%30.07 "Hg10 mi
9:00 PM34 °FClear.7 mph75%30.07 "Hg10 mi
8:30 PM36 °FClear.7 mph70%30.07 "Hg10 mi
8:00 PM36 °FClear.8 mph70%30.07 "Hg10 mi
7:30 PM37 °FClear.7 mph65%30.09 "Hg10 mi
7:00 PM37 °FClear.7 mph65%30.09 "Hg10 mi
6:30 PM37 °FClear.5 mph70%30.09 "Hg10 mi
6:00 PM41 °FClear.5 mph61%30.09 "Hg10 mi
Weather by CustomWeather, © 2015

See weather overviewHow to use our weather pages